Location: Gloden
(48.4833°N, 15.3167°E)
Time: 08:03:26
(UTC+00:00)

NOAA 6 - Pass Details

Date: 15 December 2019
Orbit: 772 x 787 km, 98.7° (Epoch: 18 January)

Event Time Altitude Azimuth Distance (km) Brightness Sun altitude
Rises 05:29:39 0° 9° (N) 3,263 7.1 -11.6°
Reaches altitude 10° 05:32:03 10° 3° (N) 2,332 6.3 -11.2°
Maximum altitude 05:36:52 42° 293° (WNW) 1,093 4.4 -10.4°
Drops below altitude 10° 05:41:40 10° 224° (SW) 2,323 6.3 -9.7°
Sets 05:44:04 0° 217° (SW) 3,248 7.1 -9.4°
